Weather History for KFWA - March, 2012

Change the Weather History Date:

Monday, March 26, 2012

  Actual Average Record
Temperature  
Mean Temperature 44 °F 42 °F  
Max Temperature 52 °F 53 °F 83 °F (1907)
Min Temperature 35 °F 32 °F 5 °F (2001)
Degree Days  
Heating Degree Days 21 23  
Month to date heating degree days 330 719  
Since 1 July heating degree days 4315 5317  
Cooling Degree Days 0 0  
Month to date cooling degree days 27 0  
Year to date cooling degree days 27 0  
Moisture  
Dew Point 31 °F    
Average Humidity 60    
Maximum Humidity 77    
Minimum Humidity 42    
Precipitation  
Precipitation 0.00 in 0.09 in 1.20 in (1934)
Month to date precipitation 2.86 2.18  
Year to date precipitation 7.96 6.48  
Snow  
Snow 0.00 in 0.00 in 3.30 in (2002)
Month to date snowfall 0.3 3.7  
Since 1 July snowfall 32.2 32.1  
Snow Depth 0.00 in    
Sea Level Pressure  
Sea Level Pressure 30.28 in    
Wind  
Wind Speed 13 mph (NE)    
Max Wind Speed 18 mph    
Max Gust Speed 24 mph    
Visibility 10 miles    
Events      
T = Trace of Precipitation, MM = Missing Value Source: NWS Daily Summary

Daily Weather History Graph

Daily Weather History Graph

Search for Another Location

Airport or City:

Trip Planner

Search our weather history database for the weather conditions in past years. The results will help you decide how hot, cold, wet, or windy it might be!

Date:

Astronomy

Mar. 26, 2012 Rise Set
Actual Time 7:33 AM EDT 7:59 PM EDT
Civil Twilight 7:05 AM EDT 8:27 PM EDT
Nautical Twilight 6:33 AM EDT 8:59 PM EDT
Astronomical Twilight 6:00 AM EDT 9:33 PM EDT
Moon 9:20 AM EDT No Moon Set
Length of Visible Light 13h 21m
Length of Day
12h 26m
Waxing Crescent, 14% of the Moon is Illuminated
Mar 26
Waxing Crescent
Mar 30
First Quarter
Apr 6
Full
Apr 13
Last Quarter
Apr 21
New

Hourly Weather History & Observations

Time (EDT) Temp. Windchill Dew Point Humidity Pressure Visibility Wind Dir Wind Speed Gust Speed Precip Events Conditions
12:54 AM 51.1 °F - 44.1 °F 77% 30.08 in 10.0 mi North 9.2 mph - N/A   Scattered Clouds
1:54 AM 51.1 °F - 42.1 °F 71% 30.09 in 10.0 mi North 9.2 mph - N/A   Scattered Clouds
2:54 AM 51.1 °F - 30.9 °F 46% 30.11 in 10.0 mi NNE 13.8 mph - N/A   Partly Cloudy
3:54 AM 48.9 °F - 33.1 °F 54% 30.12 in 10.0 mi NNE 13.8 mph 18.4 mph N/A   Clear
4:54 AM 45.0 °F 40.6 °F 32.0 °F 60% 30.14 in 10.0 mi NNE 8.1 mph - N/A   Clear
5:54 AM 43.0 °F 37.7 °F 34.0 °F 71% 30.18 in 10.0 mi North 9.2 mph - N/A   Clear
6:54 AM 41.0 °F 34.3 °F 30.0 °F 65% 30.21 in 10.0 mi NNE 11.5 mph - N/A   Partly Cloudy
7:54 AM 39.0 °F 31.4 °F 30.9 °F 73% 30.26 in 10.0 mi NNE 12.7 mph - N/A   Partly Cloudy
8:54 AM 39.9 °F 31.4 °F 30.9 °F 70% 30.30 in 10.0 mi NE 16.1 mph 23.0 mph N/A   Scattered Clouds
9:54 AM 41.0 °F 33.5 °F 30.0 °F 65% 30.33 in 10.0 mi NNE 13.8 mph - N/A   Scattered Clouds
10:54 AM 41.0 °F 33.5 °F 30.9 °F 67% 30.35 in 10.0 mi ENE 13.8 mph - N/A   Mostly Cloudy
11:54 AM 43.0 °F 35.1 °F 30.9 °F 62% 30.36 in 10.0 mi ENE 17.3 mph - N/A   Scattered Clouds
12:54 PM 46.9 °F - 32.0 °F 56% 30.35 in 10.0 mi ENE 13.8 mph 20.7 mph N/A   Scattered Clouds
1:54 PM 48.0 °F - 30.0 °F 50% 30.35 in 10.0 mi NE 17.3 mph - N/A   Scattered Clouds
2:54 PM 48.9 °F - 30.9 °F 50% 30.34 in 10.0 mi NE 9.2 mph - N/A   Scattered Clouds
3:54 PM 50.0 °F - 30.0 °F 46% 30.33 in 10.0 mi NE 13.8 mph 24.2 mph N/A   Scattered Clouds
4:54 PM 50.0 °F - 28.9 °F 44% 30.33 in 10.0 mi NE 11.5 mph 21.9 mph N/A   Partly Cloudy
5:54 PM 48.9 °F - 28.0 °F 44% 30.34 in 10.0 mi ENE 15.0 mph - N/A   Scattered Clouds
6:54 PM 48.0 °F - 27.0 °F 44% 30.34 in 10.0 mi ENE 12.7 mph - N/A   Mostly Cloudy
7:54 PM 45.0 °F 38.9 °F 26.1 °F 48% 30.34 in 10.0 mi East 12.7 mph - N/A   Scattered Clouds
8:54 PM 43.0 °F 36.8 °F 26.1 °F 51% 30.35 in 10.0 mi East 11.5 mph - N/A   Partly Cloudy
9:54 PM 41.0 °F 33.9 °F 27.0 °F 57% 30.37 in 10.0 mi ESE 12.7 mph - N/A   Clear
10:54 PM 39.0 °F 31.8 °F 25.0 °F 57% 30.39 in 10.0 mi ESE 11.5 mph - N/A   Partly Cloudy
11:54 PM 36.0 °F 28.0 °F 25.0 °F 64% 30.38 in 10.0 mi East 11.5 mph - N/A   Partly Cloudy